Weather History for KLNS - June, 2013

Change the Weather History Date:

Thursday, June 27, 2013

  Actual Average Record
Temperature  
Mean Temperature 76 °F -  
Max Temperature 84 °F 83 °F 93 °F (1983)
Min Temperature 68 °F 60 °F 49 °F (1985)
Cooling Degree Days 11    
Growing Degree Days 26 (Base 50)    
Moisture  
Dew Point 69 °F    
Average Humidity 89    
Maximum Humidity 100    
Minimum Humidity 63    
Precipitation  
Precipitation 0.34 in - - ()
Sea Level Pressure  
Sea Level Pressure 29.70 in    
Wind  
Wind Speed 3 mph (SSE)    
Max Wind Speed 12 mph    
Max Gust Speed -    
Visibility 4 miles    
Events Fog , Rain    
Averages and records for this station are not official NWS values.
T = Trace of Precipitation, MM = Missing Value Source: NWS Daily Summary

Daily Weather History Graph

Daily Weather History Graph

Search for Another Location

Airport or City:

Trip Planner

Search our weather history database for the weather conditions in past years. The results will help you decide how hot, cold, wet, or windy it might be!

Date:

Astronomy

Jun. 27, 2013 Rise Set
Actual Time 5:38 AM EDT 8:38 PM EDT
Civil Twilight 5:05 AM EDT 9:11 PM EDT
Nautical Twilight 4:23 AM EDT 9:53 PM EDT
Astronomical Twilight 3:34 AM EDT 10:41 PM EDT
Moon 11:34 PM EDT (6/27) 10:36 AM EDT (6/27)
Length of Visible Light 16h 06m
Length of Day
15h 00m
Waning Gibbous, 76% of the Moon is Illuminated
Jun 27
Waning Gibbous
Jun 30
Last Quarter
Jul 8
New
Jul 15
First Quarter
Jul 22
Full

Hourly Weather History & Observations

Time (EDT) Temp. Heat Index Dew Point Humidity Pressure Visibility Wind Dir Wind Speed Gust Speed Precip Events Conditions
12:53 AM 70.0 °F - 68.0 °F 93% 29.82 in 3.0 mi Calm Calm - N/A   Clear
1:03 AM 69.8 °F - 68.0 °F 94% 29.82 in 1.8 mi Calm Calm - N/A   Clear
1:15 AM 69.8 °F - 68.0 °F 94% 29.82 in 3.0 mi WNW 3.5 mph - N/A   Clear
1:53 AM 70.0 °F - 68.0 °F 93% 29.80 in 3.0 mi Calm Calm - N/A   Clear
2:16 AM 69.8 °F - 66.2 °F 88% 29.81 in 1.2 mi SE 3.5 mph - N/A   Partly Cloudy
2:18 AM 68.0 °F - 66.2 °F 94% 29.81 in 0.8 mi Calm Calm - N/A   Mist
2:31 AM 68.0 °F - 66.2 °F 94% 29.81 in 0.2 mi Calm Calm - N/A Fog Fog
2:53 AM 68.0 °F - 66.9 °F 96% 29.81 in 0.2 mi Calm Calm - N/A Fog Fog
3:53 AM 68.0 °F - 66.9 °F 96% 29.80 in 0.2 mi West 3.5 mph - N/A Fog Fog
4:53 AM 68.0 °F - 66.9 °F 96% 29.80 in 0.2 mi Calm Calm - N/A Fog Fog
5:53 AM 68.0 °F - 66.9 °F 96% 29.80 in 0.2 mi Calm Calm - N/A Fog Fog
6:53 AM 69.1 °F - 68.0 °F 96% 29.81 in 0.2 mi Calm Calm - N/A Fog Fog
7:53 AM 69.1 °F - 69.1 °F 100% 29.80 in 0.2 mi Calm Calm - 0.01 in Fog Fog
8:30 AM 69.8 °F - 69.8 °F 100% 29.80 in 0.2 mi Calm Calm - N/A Fog Fog
8:44 AM 69.8 °F - 69.8 °F 100% 29.80 in 0.8 mi Calm Calm - N/A   Mist
8:53 AM 70.0 °F - 69.1 °F 97% 29.80 in 1.0 mi Calm Calm - N/A   Overcast
9:21 AM 71.6 °F - 69.8 °F 94% 29.79 in 2.0 mi Variable 4.6 mph - N/A   Overcast
9:53 AM 73.0 °F - 70.0 °F 90% 29.78 in 2.5 mi SSE 4.6 mph - N/A   Mostly Cloudy
10:01 AM 73.4 °F - 69.8 °F 88% 29.78 in 2.5 mi Calm Calm - N/A   Scattered Clouds
10:16 AM 75.2 °F - 71.6 °F 89% 29.78 in 3.0 mi SE 3.5 mph - N/A   Haze
10:53 AM 78.1 °F - 72.0 °F 81% 29.76 in 4.0 mi SE 4.6 mph - N/A   Haze
11:53 AM 81.0 °F 84.4 °F 70.0 °F 69% 29.75 in 7.0 mi ESE 8.1 mph - N/A   Partly Cloudy
12:53 PM 82.9 °F 87.0 °F 70.0 °F 65% 29.71 in 8.0 mi SE 10.4 mph - N/A   Partly Cloudy
1:53 PM 84.0 °F 88.4 °F 70.0 °F 63% 29.69 in 10.0 mi SE 8.1 mph - N/A   Mostly Cloudy
2:53 PM 84.9 °F 90.1 °F 71.1 °F 63% 29.65 in 10.0 mi SE 11.5 mph - N/A   Scattered Clouds
3:53 PM 84.0 °F 89.0 °F 71.1 °F 65% 29.62 in 10.0 mi SE 11.5 mph - N/A   Mostly Cloudy
4:53 PM 75.9 °F - 69.1 °F 79% 29.61 in 10.0 mi East 6.9 mph - 0.04 in   Scattered Clouds
5:53 PM 73.9 °F - 70.0 °F 87% 29.59 in 10.0 mi ESE 5.8 mph - N/A   Mostly Cloudy
6:13 PM 73.4 °F - 69.8 °F 88% 29.60 in 3.0 mi ESE 11.5 mph - 0.04 in Rain Rain
6:16 PM 73.4 °F - 69.8 °F 88% 29.60 in 1.8 mi ESE 11.5 mph - 0.07 in Rain Heavy Rain
6:30 PM 71.6 °F - 69.8 °F 94% 29.59 in 1.8 mi ENE 4.6 mph - 0.15 in Rain Rain
6:36 PM 71.6 °F - 69.8 °F 94% 29.59 in 3.0 mi East 4.6 mph - 0.15 in Rain Light Rain
6:53 PM 73.0 °F - 71.1 °F 93% 29.58 in 6.0 mi East 4.6 mph - 0.16 in Rain Light Rain
7:04 PM 73.4 °F - 71.6 °F 94% 29.59 in 1.8 mi Calm Calm - 0.06 in Rain Heavy Rain
7:07 PM 71.6 °F - 71.6 °F 100% 29.59 in 0.8 mi Variable 3.5 mph - 0.11 in Rain Heavy Rain
7:15 PM 73.4 °F - 69.8 °F 88% 29.59 in 1.0 mi Variable 3.5 mph - 0.12 in Rain Light Rain
7:19 PM 73.4 °F - 69.8 °F 88% 29.59 in 4.0 mi WNW 5.8 mph - 0.12 in Rain Light Rain
7:41 PM 71.6 °F - 69.8 °F 94% 29.59 in 10.0 mi WNW 5.8 mph - 0.13 in   Overcast
7:50 PM 71.6 °F - 69.8 °F 94% 29.60 in 10.0 mi NW 8.1 mph - 0.13 in   Overcast
7:53 PM 72.0 °F - 70.0 °F 93% 29.59 in 10.0 mi NW 6.9 mph - 0.13 in   Overcast
8:34 PM 71.6 °F - 69.8 °F 94% 29.60 in 10.0 mi West 6.9 mph - N/A   Mostly Cloudy
8:53 PM 71.1 °F - 69.1 °F 93% 29.60 in 9.0 mi West 5.8 mph - N/A   Partly Cloudy
9:53 PM 72.0 °F - 69.1 °F 91% 29.60 in 8.0 mi SW 5.8 mph - N/A   Mostly Cloudy
10:53 PM 72.0 °F - 69.1 °F 91% 29.60 in 10.0 mi SW 6.9 mph - 0.00 in   Mostly Cloudy
11:53 PM 72.0 °F - 68.0 °F 87% 29.58 in 10.0 mi SSW 8.1 mph - N/A   Partly Cloudy